Weather History for K2W6 - March, 2013

Change the Weather History Date:

Tuesday, March 5, 2013

  Actual Average (KNHK) Record (KNHK)
Temperature  
Mean Temperature 35 °F -  
Max Temperature 44 °F 52 °F 122 °F (2004)
Min Temperature 26 °F 35 °F 17 °F (1978)
Degree Days  
Heating Degree Days 30    
Moisture  
Dew Point 21 °F    
Average Humidity 56    
Maximum Humidity 93    
Minimum Humidity 31    
Precipitation  
Precipitation 0.00 in - - ()
Sea Level Pressure  
Sea Level Pressure 30.01 in    
Wind  
Wind Speed 3 mph (East)    
Max Wind Speed 10 mph    
Max Gust Speed 16 mph    
Visibility 9 miles    
Events      
Averages and records for this station are not official NWS values.
T = Trace of Precipitation, MM = Missing Value Source: NWS Daily Summary

Daily Weather History Graph

Daily Weather History Graph

Search for Another Location

Airport or City:

Trip Planner

Search our weather history database for the weather conditions in past years. The results will help you decide how hot, cold, wet, or windy it might be!

Date:

Astronomy

Mar. 05, 2013 Rise Set
Actual Time 6:32 AM EST 6:03 PM EST
Civil Twilight 6:05 AM EST 6:30 PM EST
Nautical Twilight 5:35 AM EST 7:00 PM EST
Astronomical Twilight 5:04 AM EST 7:31 PM EST
Moon 1:38 AM EST (3/5) 11:44 AM EST (3/5)
Length of Visible Light 12h 24m
Length of Day
11h 31m
Last Quarter, 41% of the Moon is Illuminated
Mar 5
Last Quarter
Mar 11
New
Mar 19
First Quarter
Mar 27
Full
Apr 3
Last Quarter

Hourly Weather History & Observations

Time (EST) Temp. Windchill Dew Point Humidity Pressure Visibility Wind Dir Wind Speed Gust Speed Precip Events Conditions
12:02 AM 30.2 °F - 15.8 °F 55% 30.05 in 10.0 mi Calm Calm - N/A   Clear
12:22 AM 32.0 °F 28.7 °F 17.6 °F 55% 30.05 in 10.0 mi West 3.5 mph - N/A   Clear
12:42 AM 32.0 °F 27.5 °F 15.8 °F 51% 30.06 in 10.0 mi West 4.6 mph - N/A   Clear
1:02 AM 32.0 °F - 14.0 °F 48% 30.06 in 10.0 mi Calm Calm - N/A   Clear
1:22 AM 32.0 °F - 17.6 °F 55% 30.06 in 10.0 mi Calm Calm - N/A   Clear
1:42 AM 32.0 °F - 15.8 °F 51% 30.07 in 10.0 mi Calm Calm - N/A   Clear
2:02 AM 30.2 °F - 17.6 °F 60% 30.06 in 10.0 mi Calm Calm - N/A   Clear
2:22 AM 28.4 °F - 17.6 °F 64% 30.06 in 10.0 mi Calm Calm - N/A   Clear
2:42 AM 28.4 °F - 17.6 °F 64% 30.06 in 10.0 mi Calm Calm - N/A   Clear
3:02 AM 28.4 °F - 17.6 °F 64% 30.06 in 10.0 mi Calm Calm - N/A   Clear
3:22 AM 28.4 °F - 17.6 °F 64% 30.06 in 10.0 mi Calm Calm - N/A   Clear
3:42 AM 28.4 °F - 17.6 °F 64% 30.06 in 10.0 mi Calm Calm - N/A   Clear
4:02 AM 28.4 °F - 17.6 °F 64% 30.07 in 10.0 mi Calm Calm - N/A   Clear
4:22 AM 28.4 °F - 17.6 °F 64% 30.08 in 10.0 mi Calm Calm - N/A   Clear
4:42 AM 28.4 °F - 17.6 °F 64% 30.09 in 10.0 mi Calm Calm - N/A   Clear
5:02 AM 28.4 °F - 17.6 °F 64% 30.09 in 10.0 mi Calm Calm - N/A   Clear
5:22 AM 26.6 °F - 17.6 °F 69% 30.08 in 10.0 mi Calm Calm - N/A   Clear
5:42 AM 26.6 °F - 17.6 °F 69% 30.08 in 10.0 mi Calm Calm - N/A   Clear
6:02 AM 26.6 °F - 17.6 °F 69% 30.08 in 10.0 mi Calm Calm - N/A   Clear
6:22 AM 26.6 °F - 17.6 °F 69% 30.08 in 10.0 mi Calm Calm - N/A   Clear
6:42 AM 26.6 °F - 17.6 °F 69% 30.08 in 10.0 mi Calm Calm - N/A   Clear
7:02 AM 28.4 °F - 17.6 °F 64% 30.09 in 10.0 mi Calm Calm - N/A   Clear
7:42 AM 32.0 °F - 21.2 °F 64% 30.10 in 10.0 mi Calm Calm - N/A   Clear
8:02 AM 33.8 °F 30.8 °F 19.4 °F 56% 30.11 in 10.0 mi WSW 3.5 mph - N/A   Clear
8:23 AM 35.6 °F 32.8 °F 19.4 °F 52% 30.11 in 10.0 mi West 3.5 mph - N/A   Clear
8:43 AM 35.6 °F 32.8 °F 19.4 °F 52% 30.10 in 10.0 mi NW 3.5 mph - N/A   Clear
9:03 AM 37.4 °F 32.8 °F 19.4 °F 48% 30.10 in 10.0 mi North 5.8 mph - N/A   Clear
9:43 AM 39.2 °F 34.2 °F 17.6 °F 42% 30.09 in 10.0 mi WNW 6.9 mph - N/A   Clear
10:03 AM 41.0 °F 37.1 °F 17.6 °F 39% 30.08 in 10.0 mi NW 5.8 mph - N/A   Clear
10:23 AM 41.0 °F 37.1 °F 17.6 °F 39% 30.07 in 10.0 mi NNW 5.8 mph - N/A   Clear
11:03 AM 42.8 °F 41.1 °F 17.6 °F 36% 30.06 in 10.0 mi WNW 3.5 mph - N/A   Clear
11:23 AM 42.8 °F 41.1 °F 17.6 °F 36% 30.05 in 10.0 mi North 3.5 mph - N/A   Clear
11:43 AM 44.6 °F 41.4 °F 17.6 °F 34% 30.05 in 10.0 mi West 5.8 mph - N/A   Mostly Cloudy
12:03 PM 44.6 °F 43.1 °F 15.8 °F 31% 30.05 in 10.0 mi North 3.5 mph - N/A   Overcast
12:23 PM 44.6 °F - 17.6 °F 34% 30.04 in 10.0 mi Calm Calm - N/A   Overcast
12:43 PM 44.6 °F 40.2 °F 19.4 °F 37% 30.02 in 10.0 mi East 8.1 mph - N/A   Overcast
1:03 PM 44.6 °F 42.2 °F 19.4 °F 37% 30.01 in 10.0 mi ENE 4.6 mph - N/A   Overcast
1:23 PM 44.6 °F 40.7 °F 21.2 °F 39% 30.01 in 10.0 mi ESE 6.9 mph - N/A   Overcast
1:43 PM 42.8 °F 39.3 °F 21.2 °F 42% 30.01 in 10.0 mi ESE 5.8 mph - N/A   Mostly Cloudy
2:03 PM 42.8 °F 38.6 °F 23.0 °F 46% 30.00 in 10.0 mi East 6.9 mph - N/A   Overcast
2:23 PM 41.0 °F 37.1 °F 23.0 °F 49% 30.00 in 10.0 mi East 5.8 mph - N/A   Overcast
3:03 PM 41.0 °F 36.4 °F 21.2 °F 45% 29.99 in 10.0 mi East 6.9 mph - N/A   Overcast
3:23 PM 42.8 °F 38.0 °F 19.4 °F 39% 29.98 in 10.0 mi SE 8.1 mph - N/A   Overcast
4:03 PM 42.8 °F 39.3 °F 17.6 °F 36% 29.98 in 10.0 mi ESE 5.8 mph - N/A   Scattered Clouds
4:23 PM 42.8 °F 40.1 °F 19.4 °F 39% 29.97 in 10.0 mi SE 4.6 mph - N/A   Scattered Clouds
4:44 PM 42.8 °F 39.3 °F 19.4 °F 39% 29.97 in 10.0 mi ESE 5.8 mph - N/A   Mostly Cloudy
5:04 PM 42.8 °F 40.1 °F 19.4 °F 39% 29.97 in 10.0 mi SE 4.6 mph - N/A   Mostly Cloudy
5:24 PM 42.8 °F 39.3 °F 17.6 °F 36% 29.97 in 10.0 mi SE 5.8 mph - N/A   Overcast
5:44 PM 42.8 °F 40.1 °F 17.6 °F 36% 29.97 in 10.0 mi SE 4.6 mph - N/A   Overcast
6:04 PM 41.0 °F 37.1 °F 19.4 °F 42% 29.97 in 10.0 mi ESE 5.8 mph - N/A   Overcast
6:24 PM 41.0 °F 38.0 °F 19.4 °F 42% 29.97 in 10.0 mi SE 4.6 mph - N/A   Overcast
6:44 PM 41.0 °F 39.0 °F 19.4 °F 42% 29.96 in 10.0 mi SE 3.5 mph - N/A   Overcast
7:04 PM 41.0 °F 38.0 °F 21.2 °F 45% 29.96 in 10.0 mi East 4.6 mph - N/A   Overcast
7:24 PM 41.0 °F 36.4 °F 19.4 °F 42% 29.95 in 10.0 mi East 6.9 mph - N/A   Overcast
7:44 PM 41.0 °F 35.2 °F 21.2 °F 45% 29.95 in 10.0 mi East 9.2 mph - N/A   Overcast
8:04 PM 39.2 °F 33.6 °F 30.2 °F 70% 29.94 in 10.0 mi ESE 8.1 mph 16.1 mph N/A   Overcast
8:24 PM 39.2 °F 33.0 °F 30.2 °F 70% 29.94 in 10.0 mi ESE 9.2 mph - N/A   Overcast
8:44 PM 39.2 °F 35.0 °F 32.0 °F 75% 29.93 in 10.0 mi ESE 5.8 mph - N/A   Overcast
9:04 PM 37.4 °F 31.4 °F 32.0 °F 81% 29.93 in 10.0 mi ESE 8.1 mph - N/A   Overcast
9:24 PM 35.6 °F 28.6 °F 32.0 °F 87% 29.92 in 7.0 mi ESE 9.2 mph - N/A   Overcast
9:44 PM 33.8 °F 26.4 °F 32.0 °F 93% 29.91 in 7.0 mi East 9.2 mph - N/A   Overcast
10:04 PM 33.8 °F 29.6 °F 32.0 °F 93% 29.90 in 4.0 mi East 4.6 mph - N/A   Overcast
10:24 PM 33.8 °F 27.7 °F 32.0 °F 93% 29.88 in 4.0 mi East 6.9 mph - N/A   Overcast
10:44 PM 33.8 °F 27.0 °F 32.0 °F 93% 29.86 in 5.0 mi East 8.1 mph - N/A   Overcast
11:04 PM 33.8 °F 27.0 °F 32.0 °F 93% 29.84 in 5.0 mi East 8.1 mph - N/A   Overcast
11:24 PM 33.8 °F 25.8 °F 32.0 °F 93% 29.82 in 5.0 mi East 10.4 mph 16.1 mph N/A   Overcast
11:44 PM 33.8 °F 28.6 °F 32.0 °F 93% 29.82 in 4.0 mi East 5.8 mph 9.2 mph N/A   Overcast